N6OPV Weather Reports


time (UTC)temp
C
wind
direction
speed
KPH
gust
KPH
rain 1hr
cm
rain 24hr
cm
rain mn
cm
humidity
%
barometer
mb
20260506124500 8 218 0.0 0.0 0.00 0.00 0.00 83 1017.0
20260506124001 8 218 0.0 0.0 0.00 0.00 0.00 83 1016.9
20260506123001 9 218 0.0 0.0 0.00 0.00 0.00 83 1017.0
20260506122000 9 146 0.0 0.0 0.00 0.00 0.00 83 1016.8
20260506121501 9 146 0.0 0.0 0.00 0.00 0.00 82 1016.9
20260506121000 9 146 0.0 0.0 0.00 0.00 0.00 82 1016.9
20260506120502 9 146 0.0 0.0 0.00 0.00 0.00 82 1016.9
20260506115459 9 146 0.0 0.0 0.00 0.00 0.00 81 1017.0
20260506115000 9 147 0.0 0.0 0.00 0.00 0.00 81 1017.0
20260506114459 9 140 0.0 0.0 0.00 0.00 0.00 81 1017.0
20260506114000 9 140 0.0 0.0 0.00 0.00 0.00 81 1017.1
20260506113459 9 141 0.0 0.0 0.00 0.00 0.00 81 1017.1
20260506112959 9 124 0.0 0.0 0.00 0.00 0.00 81 1017.1
20260506111959 9 126 0.0 0.0 0.00 0.00 0.00 80 1017.2
20260506111002 9 126 0.0 0.0 0.00 0.00 0.00 81 1017.1
20260506110459 9 165 0.0 0.0 0.00 0.00 0.00 79 1017.2
20260506105500 9 165 0.0 0.0 0.00 0.00 0.00 78 1017.1
20260506103959 9 109 0.0 1.6 0.00 0.00 0.00 78 1017.1
20260506102959 10 136 0.0 1.6 0.00 0.00 0.00 78 1017.1
20260506102500 10 41 0.0 1.6 0.00 0.00 0.00 77 1017.1
20260506102000 10 40 0.0 1.6 0.00 0.00 0.00 77 1017.1
20260506101459 10 345 0.0 0.0 0.00 0.00 0.00 76 1017.1
20260506100959 10 345 0.0 1.6 0.00 0.00 0.00 76 1017.1
20260506100459 10 345 0.0 1.6 0.00 0.00 0.00 76 1017.1
20260506095500 10 1 0.0 1.6 0.00 0.00 0.00 75 1017.0
20260506094959 10 1 0.0 1.6 0.00 0.00 0.00 75 1017.1
20260506094459 10 110 0.0 0.0 0.00 0.00 0.00 74 1017.0
20260506094000 10 110 0.0 0.0 0.00 0.00 0.00 74 1017.0
20260506092959 10 110 0.0 1.6 0.00 0.00 0.00 74 1017.0
20260506092459 10 110 0.0 1.6 0.00 0.00 0.00 74 1017.0
20260506092000 10 110 0.0 1.6 0.00 0.00 0.00 74 1017.1
20260506091459 10 110 0.0 1.6 0.00 0.00 0.00 74 1017.2
20260506091000 10 116 0.0 1.6 0.00 0.00 0.00 74 1017.2
20260506090500 10 165 0.0 0.0 0.00 0.00 0.00 73 1017.3
20260506090001 10 165 0.0 0.0 0.00 0.00 0.00 73 1017.2
20260506085500 10 159 0.0 1.6 0.00 0.00 0.00 73 1017.3
20260506085000 10 158 0.0 1.6 0.00 0.00 0.00 73 1017.4
20260506084458 11 294 0.0 1.6 0.00 0.00 0.00 72 1017.3
20260506084000 11 245 0.0 1.6 0.00 0.00 0.00 73 1017.3
20260506082959 11 206 0.0 1.6 0.00 0.00 0.00 72 1017.4
20260506082459 11 243 0.0 1.6 0.00 0.00 0.00 72 1017.4
20260506082001 11 313 0.0 1.6 0.00 0.00 0.00 71 1017.5
20260506081458 11 269 0.0 1.6 0.00 0.00 0.00 71 1017.5
20260506081000 11 265 0.0 3.2 0.00 0.00 0.00 71 1017.5
20260506073500 11 36 0.0 4.8 0.00 0.00 0.00 70 1017.5
20260506073000 12 30 0.0 4.8 0.00 0.00 0.00 70 1017.4
20260506072500 12 309 0.0 3.2 0.00 0.00 0.00 70 1017.4
20260506072001 12 340 0.0 3.2 0.00 0.00 0.00 70 1017.3
20260506071500 12 264 0.0 3.2 0.00 0.00 0.00 70 1017.4
20260506071000 12 274 1.6 3.2 0.00 0.00 0.00 70 1017.2
20260506070500 12 348 1.6 8.0 0.00 0.00 0.00 70 1017.2
20260506062500 12 315 0.0 6.4 0.00 0.00 0.00 69 1016.9
20260506062001 12 250 0.0 6.4 0.00 0.00 0.00 69 1017.0
20260506061500 12 326 1.6 9.7 0.00 0.00 0.00 69 1017.0
20260506051000 12 246 0.0 3.2 0.00 0.00 0.00 68 1016.8
20260506050500 12 319 0.0 4.8 0.00 0.00 0.00 68 1016.7
20260506045002 13 356 0.0 4.8 0.00 0.00 0.00 68 1016.6
20260506044501 13 353 0.0 1.6 0.00 0.00 0.00 68 1016.5
20260506044000 13 309 0.0 3.2 0.00 0.00 0.00 68 1016.4
20260506043500 13 310 0.0 6.4 0.00 0.00 0.00 68 1016.4
20260506043002 13 1 0.0 6.4 0.00 0.00 0.00 68 1016.3
20260506042500 13 86 0.0 1.6 0.00 0.00 0.00 68 1016.3
20260506042001 13 302 0.0 1.6 0.00 0.00 0.00 68 1016.3
20260506041459 13 315 1.6 3.2 0.00 0.00 0.00 68 1016.1
20260506041001 13 347 1.6 6.4 0.00 0.00 0.00 68 1016.0
20260506040500 13 1 1.6 8.0 0.00 0.00 0.00 68 1016.0
20260506040002 13 327 0.0 8.0 0.00 0.00 0.00 67 1015.9
20260506035501 13 317 0.0 6.4 0.00 0.00 0.00 68 1015.8
20260506035001 13 290 1.6 9.7 0.00 0.00 0.00 68 1015.8
20260506034500 13 349 1.6 9.7 0.00 0.00 0.00 68 1015.7
20260506033500 13 303 1.6 8.0 0.00 0.00 0.00 68 1015.7
20260506032500 13 317 1.6 8.0 0.00 0.00 0.00 68 1015.5
20260506032001 13 308 3.2 9.7 0.00 0.00 0.00 68 1015.4
20260506030959 13 4 1.6 9.7 0.00 0.00 0.00 67 1015.3
20260506030502 13 340 1.6 8.0 0.00 0.00 0.00 67 1015.3
20260506030002 13 46 1.6 9.7 0.00 0.00 0.00 67 1015.2
20260506025501 13 347 3.2 9.7 0.00 0.00 0.00 67 1015.0
20260506025001 13 16 3.2 11.3 0.00 0.00 0.00 67 1014.9
20260506023501 13 134 1.6 11.3 0.00 0.00 0.00 66 1014.9
20260506022502 13 300 3.2 11.3 0.00 0.00 0.00 65 1014.7
20260506022001 13 338 3.2 9.7 0.00 0.00 0.00 65 1014.7
20260506021001 14 356 3.2 20.9 0.00 0.00 0.00 64 1014.6
20260506020002 14 360 4.8 14.5 0.00 0.00 0.00 63 1014.5
20260506015501 14 316 4.8 14.5 0.00 0.00 0.00 63 1014.5
20260506014501 14 289 4.8 12.9 0.00 0.00 0.00 63 1014.5
20260506014001 14 315 4.8 11.3 0.00 0.00 0.00 62 1014.5
20260506013501 14 342 3.2 14.5 0.00 0.00 0.00 61 1014.4
20260506013000 14 292 4.8 14.5 0.00 0.00 0.00 60 1014.5
20260506012001 15 280 4.8 11.3 0.00 0.00 0.00 58 1014.4
20260506011001 15 314 4.8 14.5 0.00 0.00 0.00 57 1014.4
20260506010500 15 231 4.8 14.5 0.00 0.00 0.00 56 1014.4
20260506004959 15 338 4.8 17.7 0.00 0.00 0.00 55 1014.4
20260506004458 15 236 4.8 17.7 0.00 0.00 0.00 55 1014.5
20260506003958 16 230 4.8 11.3 0.00 0.00 0.00 55 1014.4
20260506003459 15 333 6.4 14.5 0.00 0.00 0.00 54 1014.5
20260506002959 15 357 6.4 14.5 0.00 0.00 0.00 54 1014.4
20260506002459 16 127 6.4 17.7 0.00 0.00 0.00 54 1014.4
20260506002000 16 333 6.4 17.7 0.00 0.00 0.00 53 1014.4
20260506001459 16 248 6.4 17.7 0.00 0.00 0.00 52 1014.3
20260506000959 16 3 4.8 14.5 0.00 0.00 0.00 53 1014.3
20260505235959 16 297 4.8 17.7 0.00 0.00 0.00 52 1014.3
20260505235500 16 248 4.8 17.7 0.00 0.00 0.00 52 1014.2
20260505234959 16 115 6.4 14.5 0.00 0.00 0.00 53 1014.3
20260505234459 17 110 4.8 17.7 0.00 0.00 0.00 53 1014.3
20260505233959 17 287 4.8 16.1 0.00 0.00 0.00 55 1014.4
20260505233458 17 345 6.4 16.1 0.00 0.00 0.00 53 1014.4
20260505232959 17 308 4.8 14.5 0.00 0.00 0.00 52 1014.3
20260505232459 17 340 6.4 17.7 0.00 0.00 0.00 51 1014.3
20260505231459 17 307 6.4 17.7 0.00 0.00 0.00 51 1014.3
20260505230959 17 252 4.8 16.1 0.00 0.00 0.00 51 1014.3
20260505230459 17 290 6.4 17.7 0.00 0.00 0.00 51 1014.3
20260505230000 17 288 6.4 22.5 0.00 0.00 0.00 50 1014.4
20260505225500 18 331 6.4 22.5 0.00 0.00 0.00 50 1014.3
20260505224959 18 285 4.8 14.5 0.00 0.00 0.00 49 1014.5
20260505224459 18 345 4.8 17.7 0.00 0.00 0.00 49 1014.3
20260505223959 18 21 4.8 17.7 0.00 0.00 0.00 50 1014.3
20260505223459 18 321 4.8 12.9 0.00 0.00 0.00 48 1014.3
20260505223000 18 236 4.8 14.5 0.00 0.00 0.00 49 1014.3
20260505221959 18 300 6.4 17.7 0.00 0.00 0.00 49 1014.4
20260505221500 18 311 6.4 14.5 0.00 0.00 0.00 49 1014.4
20260505220959 18 202 4.8 14.5 0.00 0.00 0.00 49 1014.4
20260505220500 17 293 4.8 16.1 0.00 0.00 0.00 50 1014.5
20260505215959 17 274 4.8 16.1 0.00 0.00 0.00 49 1014.7
20260505215459 17 272 4.8 12.9 0.00 0.00 0.00 50 1014.6
20260505214959 17 227 4.8 14.5 0.00 0.00 0.00 51 1014.8
20260505214459 17 77 4.8 11.3 0.00 0.00 0.00 51 1014.9
20260505213959 17 314 4.8 12.9 0.00 0.00 0.00 52 1014.9
20260505213459 17 319 4.8 12.9 0.00 0.00 0.00 50 1015.1
20260505212959 17 325 4.8 16.1 0.00 0.00 0.00 51 1015.0
20260505211959 17 318 4.8 17.7 0.00 0.00 0.00 49 1015.0
20260505211459 17 232 3.2 12.9 0.00 0.00 0.00 50 1015.1
20260505210959 17 206 4.8 12.9 0.00 0.00 0.00 48 1015.1
20260505210459 17 265 4.8 11.3 0.00 0.00 0.00 47 1015.1
20260505205959 17 266 3.2 11.3 0.00 0.00 0.00 46 1015.1
20260505205459 17 306 4.8 16.1 0.00 0.00 0.00 47 1015.1
20260505204459 17 4 4.8 16.1 0.00 0.00 0.00 48 1015.0
20260505203459 17 29 4.8 16.1 0.00 0.00 0.00 48 1015.1
20260505202959 17 20 4.8 16.1 0.00 0.00 0.00 49 1015.2
20260505202459 17 252 4.8 14.5 0.00 0.00 0.00 49 1015.3
20260505201959 17 293 4.8 17.7 0.00 0.00 0.00 50 1015.2
20260505201459 17 40 4.8 17.7 0.00 0.00 0.00 50 1015.2
20260505200459 17 260 4.8 16.1 0.00 0.00 0.00 48 1015.1
20260505195959 17 331 4.8 17.7 0.00 0.00 0.00 47 1015.1
20260505195459 17 242 4.8 17.7 0.00 0.00 0.00 46 1015.1
20260505194959 17 302 4.8 14.5 0.00 0.00 0.00 45 1015.1
20260505194459 18 36 4.8 12.9 0.00 0.00 0.00 46 1015.3
20260505193959 18 297 4.8 12.9 0.00 0.00 0.00 45 1015.0
20260505193459 18 268 3.2 12.9 0.00 0.00 0.00 43 1015.0
20260505192959 18 354 3.2 11.3 0.00 0.00 0.00 43 1014.9
20260505192500 18 2 3.2 11.3 0.00 0.00 0.00 42 1014.9
20260505191959 18 336 4.8 12.9 0.00 0.00 0.00 43 1014.8
20260505191459 18 295 4.8 19.3 0.00 0.00 0.00 41 1014.8
20260505190959 18 262 4.8 19.3 0.00 0.00 0.00 42 1014.9
20260505190500 18 322 4.8 17.7 0.00 0.00 0.00 43 1014.9
20260505190001 18 269 4.8 17.7 0.00 0.00 0.00 43 1014.9
20260505185500 18 108 6.4 17.7 0.00 0.00 0.00 43 1014.8
20260505185000 18 242 6.4 19.3 0.00 0.00 0.00 43 1014.8
20260505184500 18 241 4.8 14.5 0.00 0.00 0.00 44 1014.7
20260505184000 18 248 4.8 14.5 0.00 0.00 0.00 43 1014.7
20260505183502 18 222 3.2 11.3 0.00 0.00 0.00 44 1014.6
20260505182500 18 252 4.8 12.9 0.00 0.00 0.00 46 1014.6
20260505182001 18 210 3.2 12.9 0.00 0.00 0.00 46 1014.7
20260505181501 17 179 3.2 11.3 0.00 0.00 0.00 46 1014.7
20260505181002 18 269 3.2 9.7 0.00 0.00 0.00 45 1014.6
20260505180501 18 199 3.2 12.9 0.00 0.00 0.00 48 1014.6
20260505175459 17 304 3.2 14.5 0.00 0.00 0.00 47 1014.6
20260505174959 17 205 3.2 14.5 0.00 0.00 0.00 49 1014.5
20260505174459 17 33 3.2 9.7 0.00 0.00 0.00 48 1014.6
20260505173959 17 234 1.6 8.0 0.00 0.00 0.00 49 1014.6
20260505173459 17 138 3.2 9.7 0.00 0.00 0.00 50 1014.5
20260505172459 17 255 1.6 11.3 0.00 0.00 0.00 50 1014.4
20260505171959 16 342 1.6 9.7 0.00 0.00 0.00 51 1014.5
20260505171459 16 307 1.6 6.4 0.00 0.00 0.00 52 1014.5
20260505171001 16 272 1.6 6.4 0.00 0.00 0.00 52 1014.4
20260505170500 16 90 0.0 4.8 0.00 0.00 0.00 53 1014.4
20260505170001 15 131 0.0 4.8 0.00 0.00 0.00 54 1014.5
20260505165459 15 266 0.0 4.8 0.00 0.00 0.00 54 1014.6
20260505165000 15 307 1.6 6.4 0.00 0.00 0.00 55 1014.7
20260505164458 15 314 1.6 6.4 0.00 0.00 0.00 55 1014.7
20260505164000 15 1 1.6 6.4 0.00 0.00 0.00 57 1014.7
20260505163459 15 323 1.6 6.4 0.00 0.00 0.00 57 1014.6
20260505162959 15 316 1.6 6.4 0.00 0.00 0.00 57 1014.7
20260505162500 15 360 1.6 8.0 0.00 0.00 0.00 58 1014.6
20260505161959 14 18 1.6 8.0 0.00 0.00 0.00 59 1014.7
20260505161459 14 244 1.6 6.4 0.00 0.00 0.00 59 1014.5
20260505160959 14 323 1.6 6.4 0.00 0.00 0.00 59 1014.6
20260505160458 13 284 0.0 4.8 0.00 0.00 0.00 60 1014.5
20260505153000 13 304 1.6 4.8 0.00 0.00 0.00 62 1014.3
20260505152459 13 311 0.0 4.8 0.00 0.00 0.00 62 1014.3
20260505151959 13 27 0.0 4.8 0.00 0.00 0.00 63 1014.3
20260505150959 12 317 0.0 1.6 0.00 0.00 0.00 64 1014.3
20260505150458 12 281 0.0 4.8 0.00 0.00 0.00 65 1014.3
20260505140459 10 196 0.0 0.0 0.00 0.00 0.00 77 1013.9
20260505124959 9 196 0.0 0.0 0.00 0.00 0.00 74 1013.8